Bellingham, WA
on Friday, December 7, 2012

Friday
Previous Day Next Day
Daily Summary
 ActualAverageRecord
Temperature
Mean Temperature °F 39°F  
Max Temperature 45°F 45°F 57°F (1990)
Min Temperature 39°F 33°F 8°F (1980)
Degree Days
Heating Degree Days 23 26  
Month to date heating degree days 180  
Cooling Degree Days 0 0  
Month to date cooling degree days 0  
Year to date cooling degree days 42  
Moisture
Dew Point 37°F   
Average Humidity 81    
Maximum Humidity 89    
Minimum Humidity 67    
Precipitation
Precipitation 0.10 in 0.15 in 0.68 in (1976)
Month to date precipitation 1.13  
Year to date precipitation 32.74  
Wind
Wind Speed 10 mph   
Max Wind Speed 20 mph   
Max Gust Speed 30 mph   
Visibility 10 miles   
Events Rain   

Key: T is trace of precipitation, MM is missing value
Source: NWS Daily Summary
Time(PST)TemperatureDew PointHumidity Pressure Visibility Wind DirectionWind SpeedGust SpeedPrecipitationEvents Conditions
12:08 AM 42.8°F 39.2°F 87% 30.03 in 10.0 miles SSE 9.2 mph - 0.00 in Rain Light Rain
12:51 AM 42.8°F 37.4°F 81% 30.01 in 10.0 miles SE 11.5 mph - 0.00 in Rain Light Rain
12:53 AM 43.0°F 37.9°F 82% 30.03 in 10.0 miles SSE 12.7 mph - 0.00 in Rain Light Rain
1:53 AM 44.1°F 37.9°F 79% 30.02 in 10.0 miles South 13.8 mph 26.5 mph 0.00 in Rain Light Rain
2:03 AM 44.6°F 39.2°F 81% 29.99 in 7.0 miles SSE 19.6 mph 29.9 mph 0.01 in Rain Light Rain
2:31 AM 42.8°F 39.2°F 87% 29.98 in 10.0 miles SSE 15.0 mph 23.0 mph 0.01 in Rain Light Rain
2:53 AM 44.1°F 39.0°F 82% 30.01 in 10.0 miles SSE 17.3 mph 25.3 mph 0.01 in   Overcast
3:53 AM 44.1°F 39.0°F 82% 30.00 in 10.0 miles SSE 10.4 mph 23.0 mph 0.00 in Rain Light Rain
4:34 AM 44.6°F 39.2°F 81% 29.96 in 10.0 miles South 10.4 mph - 0.00 in   Overcast
4:53 AM 44.1°F 39.9°F 85% 29.98 in 10.0 miles South 9.2 mph - 0.00 in Rain Light Rain
5:53 AM 44.1°F 39.9°F 85% 29.96 in 10.0 miles SSE 15.0 mph 21.9 mph 0.00 in   Overcast
6:31 AM 44.6°F 39.2°F 81% 29.93 in 10.0 miles South 12.7 mph 23.0 mph 0.00 in Rain Light Rain
6:53 AM 43.0°F 39.9°F 89% 29.95 in 10.0 miles SSE 12.7 mph - 0.00 in Rain Light Rain
7:02 AM 42.8°F 39.2°F 87% 29.92 in 9.0 miles South 15.0 mph 23.0 mph 0.00 in Rain Light Rain
7:09 AM 42.8°F 39.2°F 87% 29.93 in 10.0 miles SSE 11.5 mph 23.0 mph 0.00 in Rain Light Rain
7:40 AM 42.8°F 39.2°F 87% 29.92 in 10.0 miles SSE 15.0 mph 20.7 mph 0.00 in Rain Light Rain
7:53 AM 43.0°F 39.0°F 86% 29.94 in 10.0 miles SSE 11.5 mph - 0.00 in Rain Light Rain
8:23 AM 44.6°F 39.2°F 81% 29.91 in 7.0 miles Variable 4.6 mph - 0.01 in Rain Light Rain
8:53 AM 43.0°F 39.0°F 86% 29.94 in 10.0 miles SSW 5.8 mph - 0.05 in Rain Light Rain
9:44 AM 44.6°F 39.2°F 81% 29.91 in 10.0 miles SSW 8.1 mph - N/A   Scattered Clouds
9:53 AM 45.0°F 39.9°F 82% 29.95 in 10.0 miles SSW 6.9 mph - N/A   Scattered Clouds
10:53 AM 41.0°F 37.0°F 86% 29.96 in 10.0 miles SSE 3.5 mph - N/A   Mostly Cloudy
11:53 AM 44.1°F 37.9°F 79% 29.95 in 10.0 miles Calm Calm - N/A   Mostly Cloudy
12:53 PM 45.0°F 36.0°F 71% 29.97 in 10.0 miles WSW 10.4 mph 18.4 mph N/A   Overcast
1:08 PM 41.0°F 35.6°F 81% 29.96 in 2.5 miles WNW 12.7 mph 27.6 mph 0.04 in Rain Heavy Rain
1:20 PM 39.2°F 35.6°F 87% 29.96 in 10.0 miles NW 9.2 mph - 0.04 in Rain Light Rain
1:53 PM 41.0°F 36.0°F 82% 30.01 in 10.0 miles Variable 5.8 mph - 0.04 in   Mostly Cloudy
2:53 PM 43.0°F 35.1°F 74% 30.01 in 10.0 miles Variable 5.8 mph - N/A   Scattered Clouds
3:53 PM 42.1°F 33.1°F 70% 30.03 in 10.0 miles Variable 6.9 mph - N/A   Partly Cloudy
4:53 PM 42.1°F 32.0°F 67% 30.05 in 10.0 miles Variable 3.5 mph - N/A   Clear
5:53 PM 42.1°F 32.0°F 67% 30.07 in 10.0 miles Calm Calm - N/A   Partly Cloudy
6:53 PM 42.1°F 34.0°F 73% 30.08 in 10.0 miles Variable 4.6 mph - N/A   Overcast
7:53 PM 41.0°F 34.0°F 76% 30.09 in 10.0 miles SSE 3.5 mph - N/A   Partly Cloudy
8:53 PM 39.9°F 34.0°F 79% 30.11 in 10.0 miles Calm Calm - N/A   Mostly Cloudy
9:36 PM 41.0°F 33.8°F 76% 30.09 in 10.0 miles Calm Calm - N/A   Overcast
9:43 PM 41.0°F 33.8°F 76% 30.09 in 10.0 miles WSW 3.5 mph - N/A   Overcast
9:53 PM 41.0°F 34.0°F 76% 30.12 in 10.0 miles Calm Calm - N/A   Mostly Cloudy
10:01 PM 41.0°F 33.8°F 76% 30.09 in 10.0 miles Calm Calm - N/A   Mostly Cloudy
10:53 PM 39.9°F 34.0°F 79% 30.14 in 10.0 miles Calm Calm - N/A   Mostly Cloudy
11:06 PM 39.2°F 33.8°F 81% 30.11 in 10.0 miles Calm Calm - N/A   Mostly Cloudy
11:53 PM 39.0°F 35.1°F 86% 30.14 in 10.0 miles Calm Calm - N/A   Overcast
Moon Phase
Dec. 07 Dec. 13 Dec. 20 Dec. 28 Jan. 04
Sunrise:07:49 AM (PST) Moon Rise:12:46 AM (PST)12/7
Sunset:04:13 PM (PST) Moon Set:12:39 PM (PST)12/7

Copyright © 2014 The Weather Underground, Inc.